Home > Weather > Fagernes > Past weeks

Flag for Norway Past Weather in Fagernes, Norway — Yesterday and Last 2 Weeks

Now
51 °F

Cool.


Feels Like: 51 °F
Forecast: 37 / 62 °F
Wind: 1 mph from Northeast

Location: Fagernes

Current Time: May 24, 2016 at 11:43:16 PM

Latest Report: May 24, 2016 at 11:00 PM


Visibility: N/A

Pressure: 30.19 "Hg

Humidity: 51%

Dew Point: 33 °F

Location of FagernesLocation

Past Weather in Fagernes — Graph

°F

Fagernes Temperature Yesterday

Maximum temperature yesterday: 62 °F (at 3:00 PM)
Minimum temperature yesterday: 48 °F (at 4:00 AM)
Average temperature yesterday: 53 °F

High & Low Weather Summary for the Past Weeks

 TemperatureHumidityPressure
High65 °F (May 11, 5:00 PM)94% (May 23, 1:00 AM)30.32 "Hg (May 23, 1:00 AM)
Low32 °F (May 16, 6:00 AM)18% (May 19, 6:00 PM)29.64 "Hg (May 20, 5:00 PM)
Average48 °F60%29.86 "Hg
* Reported May 9 10:00 PM — May 24 10:00 PM, Fagernes, Weather by CustomWeather, © 2016

Note: Actual official high and low records may vary slightly from our data, if they occured in-between our weather recording intervals... More about our weather records

Advertising

Fagernes Weather History for the Previous 24 Hours

Scroll right to see more
 ConditionsComfort  
Time TempWeatherWind HumidityBarometerVisibility
10:00 PM
Tue, May 24
52 °FCool.1 mph47%30.16 "HgN/A
9:00 PM55 °FCool.3 mph44%30.12 "HgN/A
8:00 PM56 °FPassing clouds.3 mph50%30.09 "Hg47 mi
7:00 PM59 °FRefreshingly cool.2 mph39%30.06 "HgN/A
6:00 PM60 °FRefreshingly cool.2 mph38%30.05 "HgN/A
5:00 PM60 °FPassing clouds.1 mph35%30.06 "Hg47 mi
4:00 PM61 °FRefreshingly cool.2 mph35%30.06 "HgN/A
3:00 PM58 °FRefreshingly cool.2 mph37%30.08 "HgN/A
2:00 PM57 °FScattered clouds.2 mph41%30.09 "Hg34 mi
1:00 PM57 °FRefreshingly cool.1 mph37%30.10 "HgN/A
12:00 PM54 °FCool.1 mph48%30.12 "HgN/A
11:00 AM52 °FOvercast.1 mph49%30.12 "Hg34 mi
10:00 AM50 °FCool.1 mph55%30.12 "HgN/A
9:00 AM49 °FCool.1 mph69%30.12 "HgN/A
8:00 AM48 °FOvercast.No wind74%30.11 "Hg47 mi
7:00 AM47 °FCool.1 mph79%30.11 "HgN/A
6:00 AM46 °FCool.1 mph79%30.10 "HgN/A
5:00 AM46 °FCool.No wind82%30.09 "HgN/A
4:00 AM47 °FCool.No wind79%30.06 "HgN/A
3:00 AM47 °FCool.No wind76%30.06 "HgN/A
2:00 AM49 °FOvercast.No wind68%30.03 "Hg34 mi
1:00 AM50 °FCool.No wind72%30.02 "HgN/A
12:00 AM53 °FCool.1 mph56%30.00 "HgN/A
11:00 PM
Mon, May 23
54 °FCool.1 mph60%29.98 "HgN/A
Weather by CustomWeather, © 2016

See weather overviewHow to use our weather pages